Location: Arroyo Grande
(40.2671°N, 4.2512°W)
Time: 18:48:37
(UTC+00:00)

COSMOS 2428 - Pass Details

Date: 03 February 2023
Orbit: 843 x 858 km, 70.9° (Epoch: 22 March)

Event Time Altitude Azimuth Distance (km) Brightness Sun altitude
Rises 18:25:37 0° 150° (SSE) 3,390 5.7 -9.6°
Reaches altitude 10° 18:29:27 10° 124° (ESE) 2,459 4.7 -10.3°
Maximum altitude 18:31:57 13° 97° (E) 2,243 4.3 -10.7°
Enters shadow 18:32:26 13° 91° (E) 2,252 4.3 -10.8°
